EW7349 Weather Reports


time (UTC)temp
C
wind
direction
speed
KPH
gust
KPH
rain 1hr
cm
rain 24hr
cm
rain mn
cm
humidity
%
barometer
mb
20260508073727 7 355 1.6 8.0 0.00 0.03 0.00 87 1013.4
20260508073227 7 84 1.6 8.0 0.00 0.03 0.00 89 1013.4
20260508072720 7 90 1.6 6.4 0.00 0.03 0.00 89 1013.2
20260508072213 7 19 1.6 6.4 0.00 0.03 0.00 90 1013.1
20260508071707 7 5 1.6 4.8 0.00 0.03 0.00 90 1013.1
20260508071203 7 23 0.0 4.8 0.00 0.03 0.00 90 1013.0
20260508070655 7 12 0.0 3.2 0.00 0.03 0.00 90 1013.0
20260508070418 7 50 0.0 4.8 0.00 0.03 0.00 90 1012.9
20260508065640 7 13 0.0 4.8 0.00 0.03 0.00 90 1012.9
20260508065136 7 0 0.0 4.8 0.00 0.03 0.00 90 1012.7
20260508064629 8 52 0.0 4.8 0.00 0.03 0.00 90 1012.7
20260508064123 8 355 0.0 1.6 0.00 0.03 0.00 90 1012.6
20260508063617 8 355 0.0 1.6 0.00 0.03 0.00 90 1012.6
20260508063112 8 355 0.0 1.6 0.00 0.03 0.00 90 1012.5
20260508062606 8 240 0.0 0.0 0.00 0.03 0.00 90 1012.5
20260508062100 8 240 0.0 0.0 0.00 0.03 0.00 90 1012.4
20260508061554 8 240 0.0 0.0 0.00 0.03 0.00 90 1012.3
20260508061312 8 240 0.0 0.0 0.00 0.03 0.00 90 1012.3
20260508060542 8 240 0.0 0.0 0.00 0.03 0.00 90 1012.3
20260508060036 8 240 0.0 0.0 0.00 0.03 0.00 90 1012.2
20260508055529 8 240 0.0 0.0 0.00 0.03 0.00 90 1012.3
20260508055023 8 240 0.0 0.0 0.00 0.03 0.00 90 1012.4
20260508054749 8 240 0.0 0.0 0.00 0.03 0.00 90 1012.4
20260508054011 8 240 0.0 1.6 0.00 0.03 0.00 90 1012.4
20260508053504 8 240 0.0 1.6 0.00 0.05 0.00 90 1012.5
20260508053000 8 240 0.0 0.0 0.00 0.05 0.00 90 1012.5
20260508052453 8 240 0.0 0.0 0.00 0.05 0.00 90 1012.4
20260508051947 8 240 0.0 0.0 0.00 0.08 0.00 90 1012.4
20260508051441 8 240 0.0 1.6 0.00 0.13 0.00 89 1012.3
20260508050936 9 240 0.0 1.6 0.00 0.15 0.00 89 1012.2
20260508050430 9 240 0.0 0.0 0.00 0.15 0.00 90 1012.1
20260508045923 9 240 0.0 0.0 0.00 0.15 0.00 90 1012.1
20260508045417 9 240 0.0 0.0 0.00 0.18 0.00 89 1012.0
20260508044911 9 240 0.0 0.0 0.00 0.18 0.00 89 1012.0
20260508044632 9 240 0.0 0.0 0.00 0.18 0.00 89 1012.0
20260508043859 9 240 0.0 0.0 0.00 0.18 0.00 89 1011.9
20260508043353 9 240 0.0 1.6 0.00 0.20 0.00 89 1011.8
20260508042848 9 240 0.0 1.6 0.00 0.25 0.00 89 1011.8
20260508042601 9 263 0.0 0.0 0.00 0.28 0.00 89 1011.7
20260508041835 9 230 0.0 1.6 0.00 0.36 0.00 89 1011.7
20260508041329 9 230 0.0 3.2 0.00 0.58 0.00 89 1011.7
20260508040823 10 252 0.0 1.6 0.00 0.81 0.00 89 1011.7
20260508040317 10 304 0.0 3.2 0.00 0.94 0.00 88 1011.7
20260508035811 10 281 0.0 3.2 0.00 0.94 0.94 88 1011.7
20260508035307 10 207 0.0 1.6 0.00 0.94 0.94 88 1011.6
20260508034800 10 207 0.0 0.0 0.00 0.94 0.94 88 1011.6
20260508034519 10 207 0.0 0.0 0.00 0.94 0.94 88 1011.4
20260508033747 10 207 0.0 0.0 0.00 0.94 0.94 88 1011.4
20260508033241 10 207 0.0 1.6 0.00 0.94 0.94 88 1011.4
20260508032736 10 207 0.0 3.2 0.00 0.94 0.94 88 1011.4
20260508032230 10 211 0.0 1.6 0.00 0.94 0.94 87 1011.4
20260508031955 10 211 0.0 1.6 0.00 0.94 0.94 87 1011.4
20260508031217 10 219 0.0 3.2 0.00 0.94 0.94 87 1011.3
20260508030931 10 219 0.0 3.2 0.00 0.94 0.94 87 1011.3
20260508030205 10 268 0.0 3.2 0.00 0.94 0.94 88 1011.3
20260508025700 10 265 0.0 3.2 0.00 0.94 0.94 87 1011.3
20260508025152 10 209 0.0 3.2 0.00 0.94 0.94 87 1011.3
20260508024647 10 202 0.0 3.2 0.00 0.94 0.94 87 1011.3
20260508024141 10 202 0.0 3.2 0.00 0.94 0.94 87 1011.3
20260508023640 10 203 0.0 3.2 0.00 0.94 0.94 87 1011.3
20260508023126 10 203 0.0 3.2 0.00 0.94 0.94 87 1011.2
20260508022619 10 201 0.0 6.4 0.00 0.94 0.94 86 1011.2
20260508022330 10 271 0.0 6.4 0.00 0.94 0.94 86 1011.2
20260508021607 10 192 0.0 3.2 0.00 0.94 0.94 86 1011.2
20260508021322 10 216 0.0 1.6 0.00 0.94 0.94 85 1011.1
20260508020556 10 252 0.0 0.0 0.00 0.94 0.94 85 1011.0
20260508020525 10 252 0.0 1.6 0.00 0.94 0.94 85 1011.0
20260508015811 10 252 0.0 1.6 0.00 0.94 0.94 84 1011.0
20260508015041 10 252 0.0 1.6 0.00 0.94 0.94 84 1010.9
20260508014531 11 245 0.0 3.2 0.00 0.94 0.94 84 1010.9
20260508014029 11 248 0.0 3.2 0.00 0.94 0.94 83 1010.7
20260508013737 11 217 0.0 4.8 0.00 0.94 0.94 83 1010.8
20260508013008 11 218 0.0 4.8 0.00 0.94 0.94 82 1010.8
20260508012504 11 250 0.0 0.0 0.00 0.94 0.94 82 1010.8
20260508011956 11 250 0.0 0.0 0.00 0.94 0.94 81 1010.7
20260508011450 11 250 0.0 0.0 0.00 0.94 0.94 81 1010.7
20260508010945 11 250 0.0 0.0 0.00 0.94 0.94 80 1010.7
20260508010700 11 250 0.0 0.0 0.00 0.94 0.94 80 1010.6
20260508005934 11 250 0.0 0.0 0.00 0.94 0.94 79 1010.5
20260508005428 11 250 0.0 0.0 0.00 0.94 0.94 79 1010.5
20260508004921 12 250 0.0 0.0 0.00 0.94 0.94 78 1010.4
20260508004415 12 250 0.0 0.0 0.00 0.94 0.94 77 1010.4
20260508003910 12 250 0.0 0.0 0.00 0.94 0.94 76 1010.3
20260508003852 12 250 0.0 0.0 0.00 0.94 0.94 76 1010.2
20260508002858 12 250 0.0 0.0 0.00 0.94 0.94 75 1010.1
20260508002827 12 250 0.0 1.6 0.00 0.94 0.94 74 1010.1
20260508001846 12 250 0.0 1.6 0.00 0.94 0.94 74 1010.1
20260508001607 13 262 0.0 0.0 0.00 0.94 0.94 73 1010.1
20260508000833 13 262 0.0 0.0 0.00 0.94 0.94 73 1010.0
20260508000554 13 262 0.0 0.0 0.00 0.94 0.94 72 1010.0
20260507235827 13 262 0.0 3.2 0.00 0.94 0.94 71 1009.9
20260507235324 13 262 0.0 3.2 0.00 0.94 0.94 71 1009.9
20260507234825 13 238 0.0 3.2 0.00 0.94 0.94 71 1009.8
20260507234325 13 253 0.0 6.4 0.00 0.94 0.94 69 1009.8
20260507233825 13 205 1.6 6.4 0.00 0.94 0.94 70 1009.8
20260507233324 13 157 1.6 4.8 0.00 0.94 0.94 69 1009.7
20260507232821 13 229 1.6 4.8 0.00 0.94 0.94 69 1009.6
20260507232321 14 209 1.6 6.4 0.00 0.94 0.94 69 1009.6
20260507231817 14 198 1.6 6.4 0.00 0.94 0.94 68 1009.6
20260507231807 14 210 1.6 4.8 0.00 0.94 0.94 68 1009.4
20260507230818 14 65 0.0 4.8 0.00 0.94 0.94 68 1009.4
20260507230315 14 126 0.0 6.4 0.00 0.94 0.94 68 1009.3
20260507225814 14 250 1.6 6.4 0.00 0.94 0.94 67 1009.2
20260507225532 15 263 1.6 4.8 0.00 0.94 0.94 67 1009.2
20260507224814 15 250 1.6 6.4 0.00 0.94 0.94 66 1009.2
20260507224315 15 221 1.6 6.4 0.00 0.94 0.94 65 1009.1
20260507223813 15 211 1.6 6.4 0.00 0.94 0.94 65 1009.1
20260507223313 15 109 1.6 8.0 0.00 0.94 0.94 65 1009.1
20260507222811 15 302 1.6 8.0 0.00 0.94 0.94 67 1009.0
20260507222317 15 209 1.6 8.0 0.00 0.94 0.94 66 1009.0
20260507221813 15 130 1.6 4.8 0.00 0.94 0.94 67 1009.0
20260507221312 15 128 1.6 4.8 0.00 0.94 0.94 66 1008.9
20260507220812 15 182 1.6 6.4 0.00 0.94 0.94 65 1009.0
20260507220314 15 211 1.6 6.4 0.00 0.94 0.94 64 1008.9
20260507215813 15 306 1.6 6.4 0.00 0.94 0.94 63 1008.9
20260507215313 15 183 1.6 6.4 0.00 0.94 0.94 64 1008.9
20260507215258 15 113 1.6 6.4 0.00 0.94 0.94 65 1008.8
20260507214312 15 104 1.6 4.8 0.00 0.94 0.94 65 1008.9
20260507213813 15 235 3.2 11.3 0.00 0.94 0.94 66 1008.8
20260507213312 15 249 3.2 11.3 0.00 0.94 0.94 64 1008.9
20260507212814 15 111 1.6 6.4 0.00 0.94 0.94 65 1008.9
20260507212311 15 118 1.6 4.8 0.00 0.94 0.94 63 1008.7
20260507211811 15 178 3.2 4.8 0.00 0.94 0.94 61 1008.9
20260507211312 15 120 1.6 9.7 0.00 0.94 0.94 62 1008.9
20260507210811 15 157 3.2 9.7 0.00 0.94 0.94 61 1008.8
20260507210311 15 113 1.6 9.7 0.00 0.94 0.94 63 1008.8
20260507205813 15 94 1.6 8.0 0.00 0.94 0.94 60 1008.7
20260507205312 15 190 1.6 8.0 0.00 0.94 0.94 60 1008.8
20260507204812 16 136 1.6 4.8 0.00 0.94 0.94 61 1008.7
20260507204311 16 114 1.6 6.4 0.00 0.94 0.94 62 1008.8
20260507203809 15 244 1.6 6.4 0.00 0.94 0.94 60 1009.0
20260507203310 16 246 3.2 6.4 0.00 0.94 0.94 58 1009.1
20260507203026 16 123 3.2 6.4 0.00 0.94 0.94 60 1009.1
20260507202309 16 257 1.6 6.4 0.00 0.94 0.94 60 1009.0
20260507201810 16 307 1.6 6.4 0.00 0.94 0.94 59 1009.0
20260507201310 16 119 1.6 4.8 0.00 0.94 0.94 62 1009.0
20260507201021 15 131 1.6 3.2 0.00 0.94 0.94 59 1009.0
20260507200256 15 118 1.6 6.4 0.00 0.94 0.94 60 1009.1
20260507200015 16 65 3.2 9.7 0.00 0.94 0.94 60 1009.1
20260507195244 16 129 3.2 9.7 0.00 0.94 0.94 62 1009.3
20260507194738 15 81 1.6 4.8 0.00 0.94 0.94 66 1009.5
20260507194453 15 189 1.6 6.4 0.00 0.94 0.94 63 1009.5
20260507193726 15 271 1.6 6.4 0.00 0.94 0.94 68 1009.6
20260507193227 15 250 1.6 6.4 0.00 0.94 0.94 70 1009.5
20260507192728 14 260 1.6 6.4 0.00 0.94 0.94 67 1009.3
20260507192227 15 288 1.6 9.7 0.00 0.94 0.94 68 1009.4
20260507191725 15 211 1.6 9.7 0.00 0.94 0.94 68 1009.4
20260507191223 15 306 1.6 6.4 0.00 0.94 0.94 67 1009.6
20260507190723 13 123 1.6 4.8 0.00 0.94 0.94 72 1009.4
20260507190223 13 137 1.6 4.8 0.00 0.94 0.94 69 1009.5
20260507185725 13 132 3.2 11.3 0.00 0.94 0.94 70 1009.7
20260507185221 13 237 3.2 11.3 0.00 0.94 0.94 72 1009.9
20260507184721 13 82 1.6 4.8 0.00 0.94 0.94 74 1010.0
20260507184221 13 267 3.2 6.4 0.00 0.94 0.94 78 1010.2
20260507183721 13 201 3.2 6.4 0.00 0.94 0.94 76 1009.7
20260507183223 13 126 3.2 11.3 0.00 0.94 0.94 69 1010.2
20260507182721 14 198 1.6 11.3 0.00 0.94 0.94 63 1010.4
20260507182440 13 151 1.6 4.8 0.00 0.94 0.94 69 1010.6
20260507181722 13 152 1.6 4.8 0.00 0.94 0.94 67 1010.4
20260507181223 13 218 1.6 4.8 0.00 0.94 0.94 73 1010.0
20260507180717 13 147 1.6 4.8 0.00 0.94 0.94 69 1010.2
20260507180210 13 120 1.6 4.8 0.00 0.94 0.94 75 1010.4
20260507175714 12 139 1.6 3.2 0.00 0.94 0.94 70 1010.4
20260507175158 12 117 0.0 3.2 0.00 0.94 0.94 69 1010.5
20260507174652 12 104 1.6 3.2 0.00 0.94 0.94 68 1010.8
20260507174407 12 103 1.6 4.8 0.00 0.94 0.94 69 1010.6
20260507173640 12 129 1.6 4.8 0.00 0.94 0.94 69 1010.4
20260507173355 13 104 1.6 3.2 0.00 0.94 0.94 72 1010.8
20260507172628 13 95 0.0 3.2 0.00 0.94 0.94 73 1010.9
20260507172123 12 163 0.0 4.8 0.00 0.94 0.94 72 1010.8
20260507171616 12 163 0.0 4.8 0.00 0.94 0.94 74 1010.9
20260507171330 12 169 1.6 4.8 0.00 0.94 0.94 73 1011.0
20260507170605 13 115 1.6 3.2 0.00 0.94 0.94 72 1011.0
20260507170058 12 107 0.0 3.2 0.00 0.94 0.94 80 1010.9
20260507165552 12 40 0.0 1.6 0.00 0.94 0.94 78 1011.4
20260507165046 12 30 0.0 3.2 0.00 0.94 0.94 78 1011.6
20260507164541 12 30 0.0 3.2 0.00 0.94 0.94 82 1011.9
20260507164034 12 71 0.0 3.2 0.00 0.94 0.94 85 1011.8
20260507163529 12 71 1.6 3.2 0.00 0.94 0.94 77 1012.0
20260507163022 12 71 1.6 3.2 0.00 0.94 0.94 68 1011.8
20260507162516 12 57 0.0 4.8 0.00 0.94 0.94 64 1012.1
20260507162016 12 74 0.0 4.8 0.00 0.94 0.94 63 1011.9
20260507161514 12 70 0.0 3.2 0.00 0.94 0.94 66 1011.7
20260507161012 12 61 0.0 3.2 0.00 0.94 0.94 66 1011.7
20260507160509 12 61 0.0 4.8 0.00 0.94 0.94 66 1011.8
20260507160010 12 21 1.6 4.8 0.00 0.94 0.94 68 1011.9
20260507155509 12 54 0.0 4.8 0.00 0.94 0.94 72 1011.8
20260507155006 12 28 0.0 3.2 0.00 0.94 0.94 73 1011.9
20260507154505 12 59 0.0 3.2 0.00 0.94 0.94 74 1011.9
20260507154007 12 76 0.0 3.2 0.00 0.94 0.94 71 1012.0
20260507153502 12 76 0.0 3.2 0.00 0.94 0.94 71 1012.0
20260507153000 12 89 0.0 3.2 0.00 0.94 0.94 70 1011.9
20260507152728 12 88 1.6 6.4 0.00 0.94 0.94 69 1011.9
20260507151956 12 105 1.6 6.4 0.00 0.94 0.94 70 1012.1
20260507151455 12 39 0.0 6.4 0.00 0.94 0.94 72 1012.0
20260507150951 12 67 1.6 4.8 0.00 0.94 0.94 72 1012.0
20260507150450 12 67 1.6 6.4 0.00 0.94 0.94 72 1012.0
20260507145951 12 99 0.0 6.4 0.00 0.94 0.94 71 1012.0
20260507145450 12 44 0.0 3.2 0.00 0.94 0.94 72 1012.1
20260507144949 12 44 0.0 4.8 0.00 0.97 0.94 69 1012.2
20260507144449 12 76 0.0 4.8 0.00 0.97 0.94 70 1012.3
20260507143951 12 73 1.6 4.8 0.00 0.97 0.94 73 1012.5
20260507143710 12 71 1.6 4.8 0.00 0.99 0.94 71 1012.6
20260507142948 12 53 0.0 4.8 0.00 1.02 0.94 72 1012.6
20260507142448 12 16 0.0 4.8 0.00 1.04 0.94 74 1012.4
20260507141948 12 65 1.6 4.8 0.00 1.07 0.94 74 1012.5
20260507141445 12 63 1.6 4.8 0.00 1.14 0.94 72 1012.6
20260507140946 12 0 1.6 6.4 0.03 1.17 0.94 72 1012.6
20260507140444 12 85 1.6 6.4 0.03 1.17 0.94 72 1012.7
20260507140211 12 74 1.6 4.8 0.03 1.17 0.94 75 1012.8
20260507135446 12 63 1.6 6.4 0.03 1.17 0.94 75 1012.8
20260507134945 12 115 1.6 6.4 0.03 1.17 0.94 75 1012.7
20260507134446 12 103 1.6 6.4 0.03 1.17 0.94 77 1012.6
20260507134205 12 24 1.6 6.4 0.03 1.17 0.94 79 1012.7
20260507133443 11 39 1.6 6.4 0.03 1.19 0.94 80 1012.8
20260507132943 11 76 1.6 6.4 0.03 1.19 0.94 80 1012.9
20260507132442 11 63 1.6 8.0 0.03 1.22 0.94 80 1012.8
20260507131943 11 32 1.6 8.0 0.03 1.22 0.94 82 1012.7
20260507131446 11 75 1.6 6.4 0.03 1.24 0.94 83 1012.7
20260507130938 11 41 1.6 6.4 0.00 1.24 0.91 84 1012.6
20260507130701 11 51 1.6 4.8 0.00 1.27 0.91 86 1012.7
20260507125928 11 88 1.6 9.7 0.00 1.27 0.91 86 1012.7
20260507125907 11 115 1.6 9.7 0.00 1.27 0.91 87 1012.6
20260507124914 12 5 1.6 6.4 0.00 1.30 0.91 89 1012.7
20260507124408 12 43 1.6 4.8 0.00 1.30 0.91 90 1012.6
20260507124345 12 130 1.6 8.0 0.00 1.30 0.91 91 1012.6
20260507123400 12 51 3.2 8.0 0.00 1.30 0.91 92 1012.2
20260507122903 12 44 1.6 8.0 0.00 1.30 0.91 92 1012.2
20260507122401 12 62 1.6 6.4 0.00 1.30 0.91 93 1012.3
20260507122355 12 69 1.6 4.8 0.00 1.30 0.91 93 1012.3
20260507121401 12 56 1.6 4.8 0.00 1.30 0.91 93 1012.4
20260507120901 12 102 1.6 3.2 0.00 1.30 0.91 93 1012.2
20260507120402 12 105 0.0 1.6 0.00 1.30 0.91 93 1012.1
20260507115901 12 61 0.0 3.2 0.00 1.30 0.91 93 1011.9
20260507115402 12 61 0.0 3.2 0.00 1.30 0.91 93 1012.1
20260507114857 12 105 0.0 4.8 0.00 1.30 0.91 93 1012.1
20260507114358 12 355 1.6 4.8 0.00 1.30 0.91 93 1012.1
20260507113858 12 57 0.0 3.2 0.00 1.30 0.91 93 1012.1
20260507113359 12 57 0.0 0.0 0.00 1.30 0.91 93 1012.1
20260507112858 12 57 0.0 0.0 0.00 1.30 0.91 93 1012.0
20260507112359 12 57 0.0 0.0 0.00 1.30 0.91 93 1011.6
20260507111857 12 57 0.0 1.6 0.00 1.30 0.91 93 1011.5
20260507111358 12 57 0.0 1.6 0.00 1.30 0.91 93 1011.8
20260507110857 12 57 0.0 1.6 0.00 1.30 0.91 93 1011.9
20260507110623 12 57 0.0 0.0 0.00 1.30 0.91 93 1011.9
20260507110117 12 57 0.0 0.0 0.00 1.30 0.91 93 1011.9
20260507105357 12 57 0.0 1.6 0.00 1.30 0.91 93 1011.8
20260507104857 12 57 0.0 1.6 0.00 1.30 0.91 93 1011.8
20260507104621 12 57 0.0 0.0 0.00 1.30 0.91 93 1012.0
20260507103855 12 57 0.0 1.6 0.00 1.30 0.91 93 1011.7
20260507103356 12 57 0.0 1.6 0.00 1.30 0.91 93 1011.7
20260507102856 12 57 0.0 1.6 0.00 1.30 0.91 93 1011.7
20260507102356 12 57 0.0 1.6 0.00 1.30 0.91 93 1011.6
20260507102123 12 57 0.0 0.0 0.00 1.30 0.91 92 1011.5
20260507101352 12 57 0.0 1.6 0.00 1.30 0.91 92 1011.5
20260507100853 12 57 0.0 1.6 0.00 1.30 0.91 92 1011.3
20260507100347 12 78 0.0 0.0 0.00 1.30 0.91 92 1011.4
20260507095842 12 78 0.0 0.0 0.00 1.30 0.91 92 1011.4
20260507095335 12 78 0.0 0.0 0.00 1.30 0.91 92 1011.3
20260507095044 12 78 0.0 0.0 0.00 1.30 0.91 92 1011.2
20260507094544 12 78 0.0 0.0 0.00 1.30 0.91 92 1011.3
20260507093818 12 78 0.0 0.0 0.00 1.30 0.91 92 1011.3
20260507093311 12 78 0.0 0.0 0.00 1.30 0.91 92 1011.4
20260507092805 12 78 0.0 0.0 0.00 1.30 0.91 92 1011.4
20260507092300 12 78 0.0 0.0 0.00 1.30 0.91 92 1011.3
20260507091753 12 56 0.0 0.0 0.00 1.30 0.91 92 1011.1
20260507091247 12 57 0.0 1.6 0.00 1.30 0.91 92 1011.1
20260507090741 12 56 0.0 1.6 0.00 1.30 0.91 92 1011.0
20260507090455 12 98 0.0 1.6 0.00 1.30 0.91 92 1010.8
20260507085954 12 98 0.0 1.6 0.00 1.30 0.91 92 1010.9
20260507085454 12 98 1.6 3.2 0.00 1.30 0.91 92 1010.9
20260507084716 12 98 1.6 3.2 0.00 1.30 0.91 92 1010.9
20260507084211 12 72 0.0 1.6 0.00 1.30 0.91 92 1011.0
20260507083706 12 72 0.0 1.6 0.00 1.30 0.91 92 1011.0
20260507083200 12 74 0.0 0.0 0.00 1.30 0.91 92 1011.0
20260507082653 12 74 0.0 0.0 0.00 1.30 0.91 92 1011.1
20260507082406 12 74 0.0 3.2 0.00 1.30 0.91 92 1011.2
20260507081906 12 74 0.0 3.2 0.00 1.30 0.91 92 1011.0
20260507081136 12 60 0.0 1.6 0.00 1.30 0.91 92 1011.1
20260507080629 12 60 0.0 6.4 0.00 1.30 0.91 92 1011.3
20260507080123 12 62 1.6 6.4 0.00 1.30 0.91 92 1011.0
20260507075617 12 51 1.6 6.4 0.00 1.30 0.91 92 1010.6
20260507075337 12 34 1.6 6.4 0.00 1.30 0.91 91 1010.5
20260507074607 12 55 1.6 8.0 0.00 1.30 0.91 92 1010.5
20260507074100 12 78 1.6 8.0 0.00 1.30 0.91 92 1010.4